Regional Weather Roundup
Issued by NWS

Home | Current Version | Previous Version | Graphics & Text | Print | Product List | Glossary On
Versions: 1 2 3 4 5 6 7 8 9 10 11 12 13 14 15 16 17 18 19 20 21 22 23 24 25 26 27 28 29 30 31 32 33 34 35 36 37 38 39 40 41 42 43 44 45 46 47 48 49 50
000
ASUS43 KFSD 310810
RWRSD

WEATHER ROUNDUP FOR SOUTH DAKOTA
NATIONAL WEATHER SERVICE SIOUX FALLS SD
300 AM CDT THU JUL 31 2014

NOTE: "FAIR" INDICATES FEW OR NO CLOUDS BELOW 12,000 FEET WITH NO
SIGNIFICANT WEATHER AND/OR OBSTRUCTIONS TO VISIBILITY.


SDZ001>005-009-010-012>017-310900-
NORTHWEST AND NORTH CENTRAL SOUTH DAKOTA

CITY           SKY/WX    TMP DP  RH WIND       PRES   REMARKS
BUFFALO          N/A     60  52  74 W5        30.09F
FAITH            N/A     66  55  67 E3        30.11F
MOBRIDGE       CLEAR     60  54  80 SE6       30.07F
$$

SDZ012>016-024>037-041>051-057-063-072>074-310900-
SOUTHWEST AND SOUTH CENTRAL SOUTH DAKOTA

CITY           SKY/WX    TMP DP  RH WIND       PRES   REMARKS
RAPID CTY ARPT CLEAR     58  49  72 NW7       30.16F
PIERRE         CLEAR     63  56  78 E10       30.05F
CUSTER         PTCLDY    54  43  66 N7        30.29F
ELLSWORTH AFB  CLEAR     58  50  74 W9        30.16F
PHILIP         CLEAR     60  52  74 NW8       30.09S
PINE RIDGE     MOCLDY    55  50  83 CALM      30.17S
WINNER         FAIR      67  54  63 S10       30.04F
$$

SDZ004>011-016>023-039-040-310900-
NORTHEAST SOUTH DAKOTA

CITY           SKY/WX    TMP DP  RH WIND       PRES   REMARKS
ABERDEEN       CLOUDY    60  57  89 CALM      30.08S
WATERTOWN      CLEAR     58  54  86 CALM      30.09F
SISSETON         N/A     56  54  93 W3        30.05F
$$

SDZ017-020-022-023-036>040-048>070-310900-
SOUTHEAST SOUTH DAKOTA

CITY           SKY/WX    TMP DP  RH WIND       PRES   REMARKS
SIOUX FALLS    CLEAR     58  55  90 CALM      30.09F
HURON          PTCLDY    62  57  83 SE3       30.07F
CHAMBERLAIN    CLEAR     64  55  73 E8        30.06F
MITCHELL       RAIN      66  60  81 S5        30.08S
YANKTON        PTCLDY    64  55  72 S5        30.09F
$$

ABBREVIATIONS USED IN REMARKS
   TC - TEMPERATURE IN CELSIUS
  WCI - WIND CHILL INDEX
   HX - HEAT INDEX
  VSB - VISIBILITY




USA.gov is the U.S. government's official web portal to all federal, state and local government web resources and services.